Terug naar catalogus

YUNHAI 2-1D

ActiefWetenschapLEO
NORAD 43912·PAYLOAD·🇨🇳 China

Gelanceerd Dec 29, 2018 vanaf Jiuquan Satellite Launch Center

Loading…

Volgende Passages (komende 24 uur)

TLE

VersSource: Space-Track

Epoch: Sep 14, 2026, 13:31 UTC

1 43912U 18112D   26257.56379081  .00000054  00000-0  84347-4 0  9992
2 43912  50.0095 268.0239 0015784 299.1059  60.8276 14.29060423400363

Volg YUNHAI 2-1D in realtime met AllMySat

Download on the App Store